SCP
0 -0 -0 0 0 0 -0 0 -0 0 0 0 0 0 0 0 0 0 0 0 0 0 0 0 0 0 0 0 0 -0 -0 -0 -0 -0 -0 -0 -0 -0 -0 -0 -0 -0 -0 -0 -0 -0 -0 -0 -0
0 0 0 -0 0 0 0 0 -0 -0 0 0 0 0 0 0 -0 -0 0 0 0 0 1 1 0 -0 0 0 -0 -0 -0 -0 -0 -0 -0 -0 -0 -0 -0 -0 -0 -0 -0 -0 -0 -0 -0 -0 -0
-0 0 0 -0 0 0 0 0 -0 -0 0 0 0 0 0 0 -0 0 -0 0 0 1 1 1 0 0 0 0 -0 -0 -0 -0 -0 -0 -0 -0 -0 -0 -0 -0 0 -0 0 -0 -0 -0 -0 -0 -0
0 0 0 0 0 0 0 0 -0 -0 0 0 0 0 0 -0 0 0 0 0 1 1 1 1 1 0 0 -0 -0 -0 -0 -0 -0 -0 -0 -0 -0 -0 -0 -0 -0 0 0 0 0 -0 -0 -0 -0
0 0 0 0 0 0 0 0 0 0 0 0 0 0 0 0 0 0 0 0 0 1 1 1 1 0 0 0 0 0 -0 -0 -0 -0 -0 -0 -0 -0 -0 -0 -0 -0 -0 0 0 0 0 -0 -0
0 0 0 0 0 0 0 0 0 0 0 0 0 0 0 0 0 0 0 0 0 1 1 1 1 0 0 0 0 0 0 -0 -0 -0 -0 -0 -0 -0 -0 -0 -0 -0 -0 -0 0 0 0 0 -0
0 0 0 0 0 0 0 0 0 0 0 0 0 0 0 0 0 0 0 0 0 0 1 1 1 1 0 0 0 0 0 0 -0 -0 -0 -0 -0 -0 -0 -0 -0 -0 -0 -0 -0 0 0 0 -0
0 0 0 0 0 0 0 0 0 0 0 0 0 0 0 0 0 0 0 0 0 0 1 1 1 1 0 0 0 0 0 0 0 0 -0 -0 -0 -0 -0 -0 -0 -0 -0 0 0 0 0 0 0
0 0 0 0 0 0 0 0 0 0 0 0 0 0 0 0 0 0 0 0 0 0 0 1 1 1 1 0 0 0 0 0 0 0 0 0 0 0 0 0 -0 -0 0 0 0 0 0 0 0
0 0 0 0 0 0 0 0 0 0 0 0 0 0 0 0 0 0 0 0 0 0 0 0 1 1 1 0 0 0 0 0 0 0 0 0 0 0 0 0 -0 0 0 0 0 0 0 0 0
0 0 0 0 0 0 0 0 0 0 0 0 0 0 0 0 0 0 0 0 0 0 0 0 0 1 1 1 1 1 1 1 0 0 0 0 0 0 0 0 0 0 0 0 0 0 0 0 0
0 0 0 0 0 0 0 0 0 0 0 0 0 0 0 0 0 0 0 1 0 0 0 0 0 0 0 1 1 1 1 1 1 1 0 0 0 0 0 0 0 0 0 0 0 0 0 0 0
0 0 0 0 0 0 0 0 0 0 0 0 0 0 0 0 0 0 0 0 1 1 0 0 0 0 0 1 1 0 0 0 1 1 0 0 0 0 0 0 0 0 0 0 0 0 0 0 0
0 0 0 0 0 0 0 0 0 0 0 0 0 0 0 0 0 0 0 0 1 1 1 0 0 0 1 0 0 0 0 0 0 1 1 0 0 0 0 0 0 0 0 0 0 0 0 0 0
0 0 0 0 0 0 0 0 0 0 0 0 0 0 0 0 0 0 0 0 0 1 1 0 0 0 0 0 0 0 0 0 0 1 1 0 0 0 0 0 0 0 0 0 0 0 0 0 0
0 0 0 0 0 0 0 0 0 0 0 0 0 0 0 0 0 0 0 0 0 0 0 0 0 0 0 0 0 0 0 0 0 0 1 0 0 0 0 0 0 0 0 0 0 0 0 0 0
0 0 0 0 0 0 0 0 0 0 0 0 0 0 0 0 0 0 0 0 0 0 0 0 0 0 0 0 0 0 0 0 0 0 0 0 0 0 0 0 0 0 0 0 0 0 0 0 0
0 0 0 0 0 0 0 0 0 0 0 0 0 0 0 0 0 0 0 0 0 0 0 1 1 0 0 0 0 0 0 0 0 0 0 0 0 0 0 0 0 0 0 0 0 0 0 0 0
0 0 0 0 0 0 0 0 0 0 0 0 0 0 0 0 0 0 0 0 0 0 0 1 1 0 1 1 1 0 0 0 0 0 0 0 0 0 0 0 0 0 0 0 0 0 0 0 0
0 0 0 0 0 0 0 0 0 0 0 0 0 0 0 0 0 0 0 0 0 0 0 0 0 0 0 0 1 0 0 0 0 0 0 0 0 0 0 0 0 0 0 0 0 0 0 0 0
0 0 0 0 0 0 0 0 0 0 0 0 0 0 0 0 0 0 0 0 0 0 0 0 0 0 0 0 0 0 0 0 0 0 0 0 0 0 0 0 0 0 0 0 0 0 0 0 0
0 0 0 0 0 0 0 0 0 0 0 0 0 0 0 0 0 0 0 0 0 0 0 0 0 0 0 0 0 0 0 0 0 0 0 0 0 0 0 0 0 0 0 0 0 0 0 0 0
0 0 0 0 0 0 0 0 0 0 0 0 0 0 0 0 0 0 0 0 0 0 0 0 0 0 0 0 0 0 0 0 0 0 0 0 0 0 0 0 0 0 0 0 0 0 0 0 0
0 0 0 0 0 0 0 0 0 0 0 0 0 0 0 0 0 0 0 0 0 0 0 0 0 0 0 0 0 0 0 0 0 0 0 0 0 0 0 0 0 0 0 0 0 0 0 0 0
0 0 0 0 0 0 0 0 0 0 0 0 0 0 0 0 0 0 0 0 0 0 0 0 0 0 0 0 0 0 0 0 0 0 0 0 0 0 0 0 0 0 0 0 0 0 0 0 0
0 0 0 0 0 0 0 0 0 0 0 0 0 0 0 0 0 0 0 0 0 0 0 0 0 0 0 0 0 0 0 0 0 0 0 0 0 0 0 0 0 0 0 0 0 0 0 0 0
0 0 0 0 0 0 0 0 0 0 0 0 0 0 0 0 0 0 0 0 0 0 0 -0 -0 0 0 0 0 0 0 0 0 0 0 0 0 0 0 0 0 0 0 0 0 0 0 0 0
0 0 0 0 0 0 0 0 0 0 0 0 0 0 0 0 0 0 0 0 0 0 0 -0 -0 0 0 0 0 0 0 0 0 0 0 0 0 0 0 0 0 0 0 0 0 0 0 0 0
0 0 0 0 0 0 0 0 0 0 0 0 0 0 0 0 0 0 0 0 0 0 0 0 0 0 0 0 0 0 0 0 0 0 0 0 0 0 0 0 0 0 0 0 0 0 0 0 0
0 0 0 0 0 0 0 0 0 0 0 0 0 0 0 0 0 0 0 0 0 0 0 0 0 0 0 0 0 0 0 0 0 0 0 0 0 0 0 0 0 0 0 0 0 0 0 0 0
Wind_Speed_500mb
10 8 12 10 7 9 5 9 6 7 10 4 6 16 17 10 6 7 14 27 23 34 52 56 55 53 51 46 43 42 39 37 35 34 31 30 30 28 27 28 28 27 29 32 33 31 30 30 31
8 7 5 3 8 7 9 9 6 9 5 39 26 19 10 4 7 17 16 25 24 29 44 53 56 56 53 50 45 41 38 36 34 33 33 31 31 30 27 26 27 28 29 32 32 32 31 30 31
8 7 3 8 6 5 4 6 11 12 3 13 9 14 6 13 13 12 8 11 21 37 44 51 54 56 55 52 49 44 39 36 32 31 31 30 29 28 27 25 25 26 28 31 32 31 28 29 32
10 2 7 7 5 9 8 8 12 10 5 14 27 11 7 9 10 11 7 9 17 37 42 49 52 54 56 54 52 47 42 38 33 30 29 29 28 27 26 24 23 24 25 27 30 29 27 28 28
8 4 8 5 9 10 11 16 9 6 4 10 1 8 3 13 8 9 9 12 15 31 39 45 49 50 54 55 53 49 43 39 35 31 29 28 28 26 25 23 22 22 23 23 24 26 26 26 25
4 5 9 0 9 11 16 18 2 2 3 5 9 11 7 17 10 8 10 13 18 22 29 41 48 47 50 55 55 52 47 41 37 33 31 28 27 26 24 22 21 21 21 21 22 22 22 21 20
9 7 8 7 8 10 9 32 5 3 6 2 9 9 11 20 14 8 11 17 22 29 19 27 48 49 47 51 55 54 50 44 39 36 33 30 28 27 27 25 23 22 20 20 20 19 20 18 14
1 9 5 7 5 9 10 24 11 8 7 2 7 9 10 25 26 18 21 21 24 23 21 19 44 52 50 51 55 56 53 47 42 39 37 34 31 30 28 26 25 23 23 22 21 20 20 19 19
4 8 3 8 9 10 12 16 7 15 10 16 4 4 13 19 34 29 30 30 29 32 28 23 33 54 53 52 55 56 55 51 46 44 42 39 37 34 32 29 27 26 25 25 23 21 19 18 20
7 8 19 11 6 7 21 17 35 17 26 34 13 7 12 17 37 36 37 36 34 36 33 29 32 47 57 56 57 59 58 57 53 49 47 45 40 36 34 31 30 29 28 27 25 24 22 20 21
7 11 11 14 26 26 18 23 31 17 5 15 17 27 18 24 39 42 43 39 21 26 35 33 35 40 54 63 63 63 64 62 58 54 52 48 45 42 40 37 36 35 33 31 30 28 25 23 24
5 14 11 9 17 9 7 17 15 25 38 30 32 40 22 33 43 46 51 49 41 42 32 35 39 40 49 62 68 68 70 68 64 60 56 56 52 48 45 42 39 38 35 34 32 30 29 26 27
9 8 19 23 35 28 23 16 18 55 59 50 52 57 46 40 49 54 55 56 47 47 47 42 45 46 49 56 63 73 74 72 67 63 61 59 55 53 49 46 44 40 40 37 35 31 31 29 31
9 21 32 29 25 21 13 15 14 63 55 54 47 49 50 51 54 58 64 70 61 55 57 51 52 50 56 58 55 64 75 75 72 67 65 62 59 55 54 51 49 45 41 37 33 31 31 32 35
12 15 16 18 17 11 18 14 15 54 36 23 34 36 36 39 40 51 50 65 65 61 51 57 53 48 57 63 59 58 66 77 74 70 66 64 61 60 57 58 53 47 41 37 34 32 30 35 39
6 3 7 7 6 6 14 15 20 9 15 24 30 32 36 36 37 44 41 49 49 50 52 54 57 50 59 64 62 60 61 69 74 70 67 66 64 63 62 63 60 51 48 44 40 37 37 35 41
3 8 11 16 16 12 9 13 11 27 17 32 39 41 46 52 48 42 41 49 53 54 53 53 56 53 57 67 65 56 56 60 68 69 69 67 66 67 68 68 62 58 55 52 49 44 42 39 40
12 9 11 11 5 6 6 21 21 37 30 44 45 47 48 55 60 51 54 53 60 55 56 61 52 54 59 69 64 58 56 58 62 64 65 62 64 66 70 69 66 61 58 59 59 55 51 51 45
1 8 10 9 9 7 15 14 28 36 33 47 55 46 44 54 61 64 53 53 51 42 53 58 59 58 57 65 70 63 61 59 56 57 57 56 55 59 62 61 63 66 67 65 66 66 66 63 56
19 23 23 23 22 9 25 22 19 16 29 49 54 50 51 64 63 47 36 33 37 39 38 45 48 51 49 59 69 68 65 57 54 52 54 56 56 57 58 61 60 64 68 72 66 70 70 73 67
24 25 21 22 14 11 14 24 22 19 23 46 50 48 55 52 35 16 16 21 25 29 28 30 31 41 52 57 68 73 65 56 56 56 55 57 62 61 65 63 63 67 76 80 79 71 76 77 75
26 24 31 13 2 9 4 13 11 14 21 12 49 54 40 31 32 28 26 26 24 22 22 27 32 43 51 54 62 70 69 64 60 52 47 56 59 60 64 65 67 71 75 74 72 80 77 81 84
13 13 18 20 15 1 5 9 10 13 13 21 13 23 36 36 32 30 25 21 21 21 22 30 31 36 41 48 55 60 68 67 62 51 49 53 55 60 62 66 72 75 69 68 69 72 76 82 80
7 5 5 6 4 15 15 15 26 15 12 10 2 20 41 33 32 26 23 17 12 14 18 20 24 27 31 38 47 54 63 66 60 60 57 54 51 55 53 61 61 72 72 66 68 68 78 87 79
12 13 4 5 3 15 24 20 35 15 27 18 14 37 44 34 28 24 21 19 16 12 10 11 14 17 20 23 30 38 49 57 60 63 65 55 54 61 62 65 63 63 60 53 69 68 69 66 55
20 16 13 14 11 10 9 14 12 15 26 28 26 53 39 35 29 25 19 20 22 17 11 5 3 10 18 27 34 41 48 51 54 56 57 58 54 64 63 63 62 64 55 51 54 47 43 34 29
12 21 13 7 6 4 10 13 12 4 5 15 39 45 44 38 30 20 17 17 17 14 15 12 10 3 10 23 33 41 44 46 50 54 53 55 53 54 53 59 54 48 46 44 42 39 40 40 39
31 16 5 6 9 20 10 11 17 6 13 13 19 40 43 36 29 24 21 18 18 8 5 7 5 9 12 12 18 25 34 42 41 44 46 46 49 52 57 51 49 48 43 44 43 39 42 37 41
10 26 11 10 12 10 8 17 15 27 20 25 19 38 37 36 31 21 10 10 8 10 11 10 10 13 16 18 22 23 23 28 37 42 42 44 46 49 49 52 49 48 49 51 46 42 40 36 39
20 23 38 15 11 15 4 34 5 14 17 21 25 35 32 25 22 14 9 15 20 22 19 16 14 17 17 23 24 25 27 30 34 36 39 41 43 45 46 47 48 50 54 44 42 46 45 44 42
Wind_Direction_500mb
346 299 295 320 40 53 324 277 271 274 308 58 93 117 125 78 114 150 148 158 155 180 181 183 181 180 178 177 173 168 163 155 149 143 139 138 136 137 136 133 129 123 117 115 117 118 117 119 120
20 356 340 44 77 52 293 262 285 257 196 122 101 104 55 86 98 131 147 169 169 179 188 188 185 186 183 181 179 175 170 165 156 150 147 145 141 140 139 136 130 125 121 117 119 121 120 122 125
336 336 331 88 103 153 233 268 269 275 61 148 90 79 77 128 125 117 116 170 187 190 192 192 189 189 188 186 185 181 178 174 167 160 153 149 146 143 141 139 133 129 125 123 125 128 127 127 133
338 126 59 80 252 249 230 270 243 293 15 52 120 59 93 182 160 164 133 187 204 193 197 197 194 192 193 192 189 187 184 181 177 171 163 157 153 149 145 143 139 134 130 129 131 134 134 137 143
342 79 56 48 285 263 261 277 221 272 11 42 227 129 102 170 193 173 147 162 178 186 198 203 200 196 197 197 194 191 190 187 186 181 174 168 163 160 157 154 150 145 142 140 137 139 142 145 156
57 75 62 239 258 290 295 328 189 156 80 16 94 99 190 168 182 168 126 147 161 181 197 208 204 201 201 200 200 196 194 192 191 191 184 179 175 171 168 166 165 163 159 156 152 152 151 154 170
111 82 174 214 268 305 306 352 24 88 150 157 146 120 175 191 191 198 156 168 170 187 201 214 208 202 204 205 205 200 198 197 197 198 194 188 186 185 182 180 179 180 178 174 172 167 164 165 190
140 96 149 250 230 275 335 1 360 340 300 118 192 179 220 213 196 199 186 188 190 191 207 222 213 207 205 204 207 203 202 201 203 204 202 198 196 196 196 193 191 194 193 192 191 187 183 183 197
183 64 190 252 175 248 335 6 358 340 337 334 351 319 303 204 200 200 197 197 203 207 209 215 212 211 210 208 205 205 206 205 207 208 207 205 204 204 205 204 203 204 207 206 206 205 204 204 215
144 120 212 224 243 273 317 324 314 324 325 317 289 342 339 229 209 210 210 210 212 216 212 209 209 215 214 213 208 207 207 208 210 211 211 210 211 212 215 214 214 215 217 218 216 219 220 219 228
171 192 216 256 263 284 301 298 308 287 257 247 288 298 287 221 217 222 223 226 249 235 221 219 216 216 219 218 215 212 211 211 212 213 215 215 215 215 217 220 221 221 223 226 227 230 234 233 233
280 239 240 273 289 304 237 294 293 255 271 280 282 291 271 234 235 233 234 229 227 234 233 229 224 223 220 222 221 219 217 215 216 215 215 217 218 220 221 224 227 233 233 235 237 238 243 239 237
206 268 294 282 292 288 284 261 253 277 281 289 290 291 280 252 244 250 250 240 229 236 231 234 232 234 226 225 226 225 223 221 221 221 220 220 222 225 228 231 231 234 238 239 243 245 248 248 242
294 274 283 292 285 272 219 260 193 276 288 293 298 304 292 283 275 258 243 235 229 231 235 233 233 237 234 232 232 233 229 225 225 225 224 224 224 229 234 233 237 237 241 244 245 250 251 251 247
286 309 322 252 256 226 195 296 222 282 306 303 315 328 326 294 276 287 270 244 236 224 231 229 229 237 240 236 234 237 235 229 228 229 228 228 229 232 237 239 241 241 240 239 236 236 243 242 242
318 13 317 280 103 232 169 263 274 354 347 319 317 325 332 322 299 277 275 265 235 232 235 232 229 235 239 236 234 237 235 232 230 232 232 232 233 236 239 240 241 243 240 238 234 234 238 237 237
316 246 238 311 217 201 188 250 268 305 314 298 301 312 314 313 301 284 268 238 237 238 242 238 234 235 240 234 233 236 234 230 232 235 238 236 237 239 241 243 244 244 239 237 237 238 237 241 235
201 222 246 246 293 112 287 261 272 275 280 276 289 298 302 305 293 297 289 265 254 255 245 237 240 237 237 232 231 232 232 229 232 236 241 241 240 241 242 246 248 247 242 240 237 239 232 236 239
77 236 250 241 249 334 257 263 264 261 267 271 284 286 286 294 300 302 291 258 257 258 250 235 236 231 233 229 227 226 226 224 228 233 238 241 241 240 239 242 246 245 244 245 241 237 235 229 232
243 261 259 282 267 187 280 257 272 237 248 261 277 285 288 296 299 283 273 250 230 233 225 225 224 230 232 230 228 227 227 225 231 235 237 238 240 241 240 241 241 246 248 247 249 246 243 227 228
235 235 254 253 327 265 270 281 262 256 257 266 269 277 286 284 257 189 176 176 172 180 187 208 219 228 230 231 226 226 227 229 235 240 244 244 243 243 242 244 242 246 247 248 250 250 247 235 224
240 212 234 257 232 247 137 288 202 228 248 273 274 288 271 222 173 148 134 135 146 161 178 197 210 225 231 234 231 229 230 230 238 245 255 251 250 251 252 256 253 251 253 254 257 251 250 241 232
232 171 195 223 235 115 288 301 240 168 246 264 293 260 199 179 162 152 142 145 147 159 177 197 210 224 232 236 236 234 234 239 247 255 253 257 258 257 257 256 260 254 255 255 255 251 244 234 234
128 227 276 75 109 250 199 206 259 224 220 255 212 210 185 179 166 157 151 145 150 153 174 186 205 218 226 234 240 240 240 245 254 254 254 262 266 267 266 264 260 249 255 256 259 252 238 233 237
157 132 254 302 193 246 199 221 250 286 280 237 185 187 187 184 169 160 151 137 131 133 152 180 206 226 239 250 248 249 250 253 256 257 261 273 267 267 266 265 266 253 249 254 251 239 236 237 237
199 171 167 202 211 266 201 236 243 226 282 261 209 177 176 179 172 163 149 133 128 118 106 107 181 221 225 226 237 243 247 251 257 263 268 279 262 272 269 257 257 259 254 249 249 244 243 220 221
196 208 203 295 133 313 216 283 294 285 242 153 143 168 176 178 173 167 165 158 141 112 90 100 113 83 261 255 253 251 254 259 264 267 271 275 276 275 264 270 255 260 252 241 223 224 213 200 203
216 150 91 207 217 241 239 249 233 225 204 176 156 176 178 179 180 179 171 159 181 176 127 51 360 355 338 315 299 284 269 258 262 267 269 270 274 271 267 257 255 252 242 230 218 211 208 218 237
176 228 216 183 180 189 259 255 206 201 200 181 177 179 177 186 193 189 183 207 228 259 284 293 301 331 343 339 338 326 307 281 268 263 265 268 269 266 259 254 248 244 230 213 212 213 230 232 225
218 208 203 202 217 237 215 254 324 214 164 157 164 172 147 126 120 122 185 238 248 250 258 267 284 297 311 316 321 321 314 305 293 281 272 270 266 264 256 242 240 228 208 216 229 231 226 222 217
Wind_Speed_850mb
10 8 12 10 7 9 5 9 6 7 10 4 6 16 17 10 6 7 14 27 23 34 52 56 55 53 51 46 43 42 39 37 35 34 31 30 30 28 27 28 28 27 29 32 33 31 30 30 31
8 7 5 3 8 7 9 9 6 9 5 39 26 19 10 4 7 17 16 25 24 29 44 53 56 56 53 50 45 41 38 36 34 33 33 31 31 30 27 26 27 28 29 32 32 32 31 30 31
8 7 3 8 6 5 4 6 11 12 3 13 9 14 6 13 13 12 8 11 21 37 44 51 54 56 55 52 49 44 39 36 32 31 31 30 29 28 27 25 25 26 28 31 32 31 28 29 32
10 2 7 7 5 9 8 8 12 10 5 14 27 11 7 9 10 11 7 9 17 37 42 49 52 54 56 54 52 47 42 38 33 30 29 29 28 27 26 24 23 24 25 27 30 29 27 28 28
8 4 8 5 9 10 11 16 9 6 4 10 1 8 3 13 8 9 9 12 15 31 39 45 49 50 54 55 53 49 43 39 35 31 29 28 28 26 25 23 22 22 23 23 24 26 26 26 25
4 5 9 0 9 11 16 18 2 2 3 5 9 11 7 17 10 8 10 13 18 22 29 41 48 47 50 55 55 52 47 41 37 33 31 28 27 26 24 22 21 21 21 21 22 22 22 21 20
9 7 8 7 8 10 9 32 5 3 6 2 9 9 11 20 14 8 11 17 22 29 19 27 48 49 47 51 55 54 50 44 39 36 33 30 28 27 27 25 23 22 20 20 20 19 20 18 14
1 9 5 7 5 9 10 24 11 8 7 2 7 9 10 25 26 18 21 21 24 23 21 19 44 52 50 51 55 56 53 47 42 39 37 34 31 30 28 26 25 23 23 22 21 20 20 19 19
4 8 3 8 9 10 12 16 7 15 10 16 4 4 13 19 34 29 30 30 29 32 28 23 33 54 53 52 55 56 55 51 46 44 42 39 37 34 32 29 27 26 25 25 23 21 19 18 20
7 8 19 11 6 7 21 17 35 17 26 34 13 7 12 17 37 36 37 36 34 36 33 29 32 47 57 56 57 59 58 57 53 49 47 45 40 36 34 31 30 29 28 27 25 24 22 20 21
7 11 11 14 26 26 18 23 31 17 5 15 17 27 18 24 39 42 43 39 21 26 35 33 35 40 54 63 63 63 64 62 58 54 52 48 45 42 40 37 36 35 33 31 30 28 25 23 24
5 14 11 9 17 9 7 17 15 25 38 30 32 40 22 33 43 46 51 49 41 42 32 35 39 40 49 62 68 68 70 68 64 60 56 56 52 48 45 42 39 38 35 34 32 30 29 26 27
9 8 19 23 35 28 23 16 18 55 59 50 52 57 46 40 49 54 55 56 47 47 47 42 45 46 49 56 63 73 74 72 67 63 61 59 55 53 49 46 44 40 40 37 35 31 31 29 31
9 21 32 29 25 21 13 15 14 63 55 54 47 49 50 51 54 58 64 70 61 55 57 51 52 50 56 58 55 64 75 75 72 67 65 62 59 55 54 51 49 45 41 37 33 31 31 32 35
12 15 16 18 17 11 18 14 15 54 36 23 34 36 36 39 40 51 50 65 65 61 51 57 53 48 57 63 59 58 66 77 74 70 66 64 61 60 57 58 53 47 41 37 34 32 30 35 39
6 3 7 7 6 6 14 15 20 9 15 24 30 32 36 36 37 44 41 49 49 50 52 54 57 50 59 64 62 60 61 69 74 70 67 66 64 63 62 63 60 51 48 44 40 37 37 35 41
3 8 11 16 16 12 9 13 11 27 17 32 39 41 46 52 48 42 41 49 53 54 53 53 56 53 57 67 65 56 56 60 68 69 69 67 66 67 68 68 62 58 55 52 49 44 42 39 40
12 9 11 11 5 6 6 21 21 37 30 44 45 47 48 55 60 51 54 53 60 55 56 61 52 54 59 69 64 58 56 58 62 64 65 62 64 66 70 69 66 61 58 59 59 55 51 51 45
1 8 10 9 9 7 15 14 28 36 33 47 55 46 44 54 61 64 53 53 51 42 53 58 59 58 57 65 70 63 61 59 56 57 57 56 55 59 62 61 63 66 67 65 66 66 66 63 56
19 23 23 23 22 9 25 22 19 16 29 49 54 50 51 64 63 47 36 33 37 39 38 45 48 51 49 59 69 68 65 57 54 52 54 56 56 57 58 61 60 64 68 72 66 70 70 73 67
24 25 21 22 14 11 14 24 22 19 23 46 50 48 55 52 35 16 16 21 25 29 28 30 31 41 52 57 68 73 65 56 56 56 55 57 62 61 65 63 63 67 76 80 79 71 76 77 75
26 24 31 13 2 9 4 13 11 14 21 12 49 54 40 31 32 28 26 26 24 22 22 27 32 43 51 54 62 70 69 64 60 52 47 56 59 60 64 65 67 71 75 74 72 80 77 81 84
13 13 18 20 15 1 5 9 10 13 13 21 13 23 36 36 32 30 25 21 21 21 22 30 31 36 41 48 55 60 68 67 62 51 49 53 55 60 62 66 72 75 69 68 69 72 76 82 80
7 5 5 6 4 15 15 15 26 15 12 10 2 20 41 33 32 26 23 17 12 14 18 20 24 27 31 38 47 54 63 66 60 60 57 54 51 55 53 61 61 72 72 66 68 68 78 87 79
12 13 4 5 3 15 24 20 35 15 27 18 14 37 44 34 28 24 21 19 16 12 10 11 14 17 20 23 30 38 49 57 60 63 65 55 54 61 62 65 63 63 60 53 69 68 69 66 55
20 16 13 14 11 10 9 14 12 15 26 28 26 53 39 35 29 25 19 20 22 17 11 5 3 10 18 27 34 41 48 51 54 56 57 58 54 64 63 63 62 64 55 51 54 47 43 34 29
12 21 13 7 6 4 10 13 12 4 5 15 39 45 44 38 30 20 17 17 17 14 15 12 10 3 10 23 33 41 44 46 50 54 53 55 53 54 53 59 54 48 46 44 42 39 40 40 39
31 16 5 6 9 20 10 11 17 6 13 13 19 40 43 36 29 24 21 18 18 8 5 7 5 9 12 12 18 25 34 42 41 44 46 46 49 52 57 51 49 48 43 44 43 39 42 37 41
10 26 11 10 12 10 8 17 15 27 20 25 19 38 37 36 31 21 10 10 8 10 11 10 10 13 16 18 22 23 23 28 37 42 42 44 46 49 49 52 49 48 49 51 46 42 40 36 39
20 23 38 15 11 15 4 34 5 14 17 21 25 35 32 25 22 14 9 15 20 22 19 16 14 17 17 23 24 25 27 30 34 36 39 41 43 45 46 47 48 50 54 44 42 46 45 44 42
Wind_Direction_850mb
346 299 295 320 40 53 324 277 271 274 308 58 93 117 125 78 114 150 148 158 155 180 181 183 181 180 178 177 173 168 163 155 149 143 139 138 136 137 136 133 129 123 117 115 117 118 117 119 120
20 356 340 44 77 52 293 262 285 257 196 122 101 104 55 86 98 131 147 169 169 179 188 188 185 186 183 181 179 175 170 165 156 150 147 145 141 140 139 136 130 125 121 117 119 121 120 122 125
336 336 331 88 103 153 233 268 269 275 61 148 90 79 77 128 125 117 116 170 187 190 192 192 189 189 188 186 185 181 178 174 167 160 153 149 146 143 141 139 133 129 125 123 125 128 127 127 133
338 126 59 80 252 249 230 270 243 293 15 52 120 59 93 182 160 164 133 187 204 193 197 197 194 192 193 192 189 187 184 181 177 171 163 157 153 149 145 143 139 134 130 129 131 134 134 137 143
342 79 56 48 285 263 261 277 221 272 11 42 227 129 102 170 193 173 147 162 178 186 198 203 200 196 197 197 194 191 190 187 186 181 174 168 163 160 157 154 150 145 142 140 137 139 142 145 156
57 75 62 239 258 290 295 328 189 156 80 16 94 99 190 168 182 168 126 147 161 181 197 208 204 201 201 200 200 196 194 192 191 191 184 179 175 171 168 166 165 163 159 156 152 152 151 154 170
111 82 174 214 268 305 306 352 24 88 150 157 146 120 175 191 191 198 156 168 170 187 201 214 208 202 204 205 205 200 198 197 197 198 194 188 186 185 182 180 179 180 178 174 172 167 164 165 190
140 96 149 250 230 275 335 1 360 340 300 118 192 179 220 213 196 199 186 188 190 191 207 222 213 207 205 204 207 203 202 201 203 204 202 198 196 196 196 193 191 194 193 192 191 187 183 183 197
183 64 190 252 175 248 335 6 358 340 337 334 351 319 303 204 200 200 197 197 203 207 209 215 212 211 210 208 205 205 206 205 207 208 207 205 204 204 205 204 203 204 207 206 206 205 204 204 215
144 120 212 224 243 273 317 324 314 324 325 317 289 342 339 229 209 210 210 210 212 216 212 209 209 215 214 213 208 207 207 208 210 211 211 210 211 212 215 214 214 215 217 218 216 219 220 219 228
171 192 216 256 263 284 301 298 308 287 257 247 288 298 287 221 217 222 223 226 249 235 221 219 216 216 219 218 215 212 211 211 212 213 215 215 215 215 217 220 221 221 223 226 227 230 234 233 233
280 239 240 273 289 304 237 294 293 255 271 280 282 291 271 234 235 233 234 229 227 234 233 229 224 223 220 222 221 219 217 215 216 215 215 217 218 220 221 224 227 233 233 235 237 238 243 239 237
206 268 294 282 292 288 284 261 253 277 281 289 290 291 280 252 244 250 250 240 229 236 231 234 232 234 226 225 226 225 223 221 221 221 220 220 222 225 228 231 231 234 238 239 243 245 248 248 242
294 274 283 292 285 272 219 260 193 276 288 293 298 304 292 283 275 258 243 235 229 231 235 233 233 237 234 232 232 233 229 225 225 225 224 224 224 229 234 233 237 237 241 244 245 250 251 251 247
286 309 322 252 256 226 195 296 222 282 306 303 315 328 326 294 276 287 270 244 236 224 231 229 229 237 240 236 234 237 235 229 228 229 228 228 229 232 237 239 241 241 240 239 236 236 243 242 242
318 13 317 280 103 232 169 263 274 354 347 319 317 325 332 322 299 277 275 265 235 232 235 232 229 235 239 236 234 237 235 232 230 232 232 232 233 236 239 240 241 243 240 238 234 234 238 237 237
316 246 238 311 217 201 188 250 268 305 314 298 301 312 314 313 301 284 268 238 237 238 242 238 234 235 240 234 233 236 234 230 232 235 238 236 237 239 241 243 244 244 239 237 237 238 237 241 235
201 222 246 246 293 112 287 261 272 275 280 276 289 298 302 305 293 297 289 265 254 255 245 237 240 237 237 232 231 232 232 229 232 236 241 241 240 241 242 246 248 247 242 240 237 239 232 236 239
77 236 250 241 249 334 257 263 264 261 267 271 284 286 286 294 300 302 291 258 257 258 250 235 236 231 233 229 227 226 226 224 228 233 238 241 241 240 239 242 246 245 244 245 241 237 235 229 232
243 261 259 282 267 187 280 257 272 237 248 261 277 285 288 296 299 283 273 250 230 233 225 225 224 230 232 230 228 227 227 225 231 235 237 238 240 241 240 241 241 246 248 247 249 246 243 227 228
235 235 254 253 327 265 270 281 262 256 257 266 269 277 286 284 257 189 176 176 172 180 187 208 219 228 230 231 226 226 227 229 235 240 244 244 243 243 242 244 242 246 247 248 250 250 247 235 224
240 212 234 257 232 247 137 288 202 228 248 273 274 288 271 222 173 148 134 135 146 161 178 197 210 225 231 234 231 229 230 230 238 245 255 251 250 251 252 256 253 251 253 254 257 251 250 241 232
232 171 195 223 235 115 288 301 240 168 246 264 293 260 199 179 162 152 142 145 147 159 177 197 210 224 232 236 236 234 234 239 247 255 253 257 258 257 257 256 260 254 255 255 255 251 244 234 234
128 227 276 75 109 250 199 206 259 224 220 255 212 210 185 179 166 157 151 145 150 153 174 186 205 218 226 234 240 240 240 245 254 254 254 262 266 267 266 264 260 249 255 256 259 252 238 233 237
157 132 254 302 193 246 199 221 250 286 280 237 185 187 187 184 169 160 151 137 131 133 152 180 206 226 239 250 248 249 250 253 256 257 261 273 267 267 266 265 266 253 249 254 251 239 236 237 237
199 171 167 202 211 266 201 236 243 226 282 261 209 177 176 179 172 163 149 133 128 118 106 107 181 221 225 226 237 243 247 251 257 263 268 279 262 272 269 257 257 259 254 249 249 244 243 220 221
196 208 203 295 133 313 216 283 294 285 242 153 143 168 176 178 173 167 165 158 141 112 90 100 113 83 261 255 253 251 254 259 264 267 271 275 276 275 264 270 255 260 252 241 223 224 213 200 203
216 150 91 207 217 241 239 249 233 225 204 176 156 176 178 179 180 179 171 159 181 176 127 51 360 355 338 315 299 284 269 258 262 267 269 270 274 271 267 257 255 252 242 230 218 211 208 218 237
176 228 216 183 180 189 259 255 206 201 200 181 177 179 177 186 193 189 183 207 228 259 284 293 301 331 343 339 338 326 307 281 268 263 265 268 269 266 259 254 248 244 230 213 212 213 230 232 225
218 208 203 202 217 237 215 254 324 214 164 157 164 172 147 126 120 122 185 238 248 250 258 267 284 297 311 316 321 321 314 305 293 281 272 270 266 264 256 242 240 228 208 216 229 231 226 222 217